METEOSAT-11 (MSG-4)

Last updated on Nov. 15, 2019, 4:20 a.m. UTC

1 40732U 15034A   19318.26021493  .00000010  00000-0  00000+0 0  9998
2 40732   0.7413 246.2963 0000456 297.6007 322.6552  1.00268544 15901
UTC
Height (km)
Latitude
Longitude
Inclination
Orbital Period
UTC large
Height (km)
Speed (km/s)
/
Latitude / Longitude
Inclination (degrees)
Orbital Period (minutes)
Azimuth
Elevation
Range (km)
Doppler Factor
iOS Compass Heading
iOS Angle

Next 30 passes for location: Hong Kong

Rise time Rise Azimuth (degrees) Set time Set Azimuth (degrees) Duration Max altitude (degrees)

No matching passes for this satellites